Regional Weather Roundup
Issued by NWS

Home | Current Version | Previous Version | Graphics & Text | Print | Product List | Glossary On
Versions: 1 2 3 4 5 6 7 8 9 10 11 12 13 14 15 16 17 18 19 20 21 22 23 24 25 26 27 28 29 30 31 32 33 34 35 36 37 38 39 40 41 42 43 44 45 46 47 48 49 50
198
ASUS43 KFSD 071710
RWRSD

WEATHER ROUNDUP FOR SOUTH DAKOTA
NATIONAL WEATHER SERVICE SIOUX FALLS SD
1100 AM CST SUN FEB 07 2016

NOTE: "FAIR" INDICATES FEW OR NO CLOUDS BELOW 12,000 FEET WITH NO
SIGNIFICANT WEATHER AND/OR OBSTRUCTIONS TO VISIBILITY.


SDZ001>005-009-010-012>017-071800-
NORTHWEST AND NORTH CENTRAL SOUTH DAKOTA

CITY           SKY/WX    TMP DP  RH WIND       PRES   REMARKS
BUFFALO          N/A     37  13  37 NW56G71   30.01R
FAITH            N/A     34  16  47 NW45G61   30.02R WCI  18
MOBRIDGE       CLOUDY    35  24  64 NW35G47   29.86R WCI  21
$$

SDZ012>016-024>037-041>051-057-063-072>074-071800-
SOUTHWEST AND SOUTH CENTRAL SOUTH DAKOTA

CITY           SKY/WX    TMP DP  RH WIND       PRES   REMARKS
RAPID CTY ARPT SUNNY     38  10  31 NW48G63   30.14R
PIERRE         CLOUDY    35  24  64 NW41G52   29.95R WCI  20
CUSTER         SUNNY     26   2  35 NW26G52   30.13R WCI  10
ELLSWORTH AFB  SUNNY     37  10  33 NW45G61   30.11R
PHILIP         CLOUDY    39  16  39 NW40G56   30.04R
PINE RIDGE     SUNNY     38   9  30 NW32G41   30.17S
SPEARFISH      HVY SNOW  32   9  37 NW33G53   30.20R WCI  17
WINNER         LGT RAIN  39  18  42 NW32G47   30.00R
$$

SDZ004>011-016>023-039-040-071800-
NORTHEAST SOUTH DAKOTA

CITY           SKY/WX    TMP DP  RH WIND       PRES   REMARKS
ABERDEEN       FLURRIES  36  28  73 NW24G32   29.80R
WATERTOWN      FLURRIES  34  27  75 W21G32    29.75R WCI  22
BROOKINGS      MOSUNNY   34  26  72 W31G37    29.77R WCI  20
SISSETON         N/A     37  29  72 NW28G38   29.68S
$$

SDZ017-020-022-023-036>040-048>070-071800-
SOUTHEAST SOUTH DAKOTA

CITY           SKY/WX    TMP DP  RH WIND       PRES   REMARKS
SIOUX FALLS    MOSUNNY   38  26  62 NW23G35   29.83S
HURON          LGT SNOW  33  29  85 NW28G40   29.86R FOG     WCI  20
CHAMBERLAIN    CLOUDY    34  26  72 NW30G39   29.98R WCI  20
MITCHELL       CLOUDY    38  27  64 NW32G47   29.91R
YANKTON        SUNNY    N/A N/A N/A NW35G41   29.92F
$$

ABBREVIATIONS USED IN REMARKS
   TC - TEMPERATURE IN CELSIUS
  WCI - WIND CHILL INDEX
   HX - HEAT INDEX
  VSB - VISIBILITY





USA.gov is the U.S. government's official web portal to all federal, state and local government web resources and services.